Tracking 30995 objects as of 7-Jul-2025
HD Live streaming from Space Station
objects crossing your sky now

THORAD AGENA D DEB

Track THORAD AGENA D DEB now!
10-day predictions


NORAD ID: 4677
Int'l Code: 1970-025BA
Perigee: 1,042.8 km
Apogee: 1,055.1 km
Inclination: 100.0 °
Period: 106.0 minutes
Semi major axis: 7419 km
RCS: 0.0681 m2 (small)
Launch date: April 8, 1970
Source: United States (US)
Launch site: AIR FORCE WESTERN TEST RANGE (AFWTR)

Note: This is SATELLITE DEBRIS
Your satellite tracking list
COSMOS 1823 DEB
Track 1 satellite(s)




NASA's NSSDC Master Catalog

Two Line Element Set (TLE):
1  4677U 70025BA  25187.88464821  .00000076  00000-0  16847-3 0  9994
2  4677  99.9608 297.9935 0008344 294.5456 183.8350 13.58319660732142
Source of the keplerian elements: AFSPC